Location: Lancaster
(34.6980°N, 118.1360°W)
Time: 21:31:01

Tiangong 1 - Visible Passes

Search period start: 21 March 2018 00:00
Search period end: 31 March 2018 00:00
Orbit: 212 x 233 km, 42.7° (Epoch: 21 March)

Date Brightness Start Highest point End Pass type
(mag) Time Alt. Az. Time Alt. Az. Time Alt. Az.
27 Mar 2.8 06:05:22 10° S 06:06:28 13° SE 06:07:33 10° ESE visible
28 Mar 2.5 05:42:57 13° S 05:43:49 16° SE 05:45:10 10° E visible
29 Mar 2.6 05:20:54 17° SE 05:20:54 17° SE 05:21:57 10° E visible
